Marysville, MI

10:43 AM EST on February 23, 2017 (GMT -0500)
Saint Clair County International

Weather History for KPHN - November, 2012

Change the Weather History Date:

Friday, November 9, 2012

  Actual Average (KMTC) Record (KMTC)
Temperature  
Mean Temperature 36 °F -  
Max Temperature 48 °F 49 °F 75 °F (1999)
Min Temperature 24 °F 35 °F 14 °F (1991)
Degree Days  
Heating Degree Days 29    
Moisture  
Dew Point 33 °F    
Average Humidity 84    
Maximum Humidity 100    
Minimum Humidity 62    
Precipitation  
Precipitation 0.00 in - - ()
Sea Level Pressure  
Sea Level Pressure 30.15 in    
Wind  
Wind Speed 2 mph (South)    
Max Wind Speed 9 mph    
Max Gust Speed -    
Visibility 6 miles    
Events Rain    
Averages and records for this station are not official NWS values.
T = Trace of Precipitation, MM = Missing Value Source: NWS Daily Summary

Daily Weather History Graph

Daily Weather History Graph

Search for Another Location

Airport or City:

Trip Planner

Search our weather history database for the weather conditions in past years. The results will help you decide how hot, cold, wet, or windy it might be!

Date:

Astronomy

Nov. 09, 2012 Rise Set
Actual Time 7:15 AM EST 5:12 PM EST
Civil Twilight 6:45 AM EST 5:42 PM EST
Nautical Twilight 6:11 AM EST 6:16 PM EST
Astronomical Twilight 5:37 AM EST 6:49 PM EST
Moon 2:06 AM EST (11/9) 2:30 PM EST (11/9)
Length of Visible Light 10h 57m
Length of Day
9h 56m
Waning Crescent, 23% of the Moon is Illuminated
Nov 9
Waning Crescent
Nov 13
New
Nov 20
First Quarter
Nov 28
Full
Dec 6
Last Quarter

Hourly Weather History & Observations

Time (EST) Temp. Windchill Dew Point Humidity Pressure Visibility Wind Dir Wind Speed Gust Speed Precip Events Conditions
12:16 AM 26.6 °F - 26.6 °F 100% 30.14 in 5.0 mi Calm Calm - N/A   Clear
12:36 AM 26.6 °F - 26.6 °F 100% 30.14 in 4.0 mi Calm Calm - N/A   Clear
12:56 AM 26.6 °F - 26.6 °F 100% 30.14 in 5.0 mi Calm Calm - N/A   Clear
1:16 AM 26.6 °F - 24.8 °F 93% 30.14 in 5.0 mi Calm Calm - N/A   Clear
1:36 AM 26.6 °F - 26.6 °F 100% 30.14 in 7.0 mi Calm Calm - N/A   Clear
1:56 AM 26.6 °F - 24.8 °F 93% 30.15 in 4.0 mi Calm Calm - N/A   Clear
2:16 AM 26.6 °F - 24.8 °F 93% 30.16 in 7.0 mi Calm Calm - N/A   Clear
2:36 AM 26.6 °F - 24.8 °F 93% 30.16 in 7.0 mi Calm Calm - N/A   Clear
2:56 AM 26.6 °F - 24.8 °F 93% 30.16 in 5.0 mi Calm Calm - N/A   Clear
3:16 AM 24.8 °F - 24.8 °F 100% 30.16 in 5.0 mi Calm Calm - N/A   Clear
3:36 AM 24.8 °F - 24.8 °F 100% 30.16 in 4.0 mi Calm Calm - N/A   Clear
3:56 AM 24.8 °F - 24.8 °F 100% 30.15 in 5.0 mi Calm Calm - N/A   Clear
4:16 AM 24.8 °F - 24.8 °F 100% 30.15 in 7.0 mi Calm Calm - N/A   Clear
4:36 AM 26.6 °F - 24.8 °F 93% 30.15 in 5.0 mi Calm Calm - N/A   Clear
4:56 AM 26.6 °F - 26.6 °F 100% 30.15 in 4.0 mi Calm Calm - N/A   Scattered Clouds
5:16 AM 26.6 °F - 26.6 °F 100% 30.16 in 4.0 mi Calm Calm - N/A   Overcast
5:36 AM 28.4 °F - 26.6 °F 93% 30.16 in 5.0 mi Calm Calm - N/A   Overcast
5:56 AM 28.4 °F - 26.6 °F 93% 30.16 in 5.0 mi Calm Calm - N/A   Mostly Cloudy
6:16 AM 28.4 °F - 28.4 °F 100% 30.16 in 4.0 mi Calm Calm - N/A   Overcast
6:36 AM 30.2 °F - 28.4 °F 93% 30.17 in 4.0 mi Calm Calm - N/A   Overcast
6:56 AM 30.2 °F - 28.4 °F 93% 30.16 in 4.0 mi Calm Calm - N/A   Overcast
7:16 AM 30.2 °F - 30.2 °F 100% 30.16 in 2.5 mi Calm Calm - N/A   Overcast
7:36 AM 32.0 °F - 30.2 °F 93% 30.17 in 2.0 mi Calm Calm - N/A   Overcast
7:56 AM 32.0 °F 28.7 °F 32.0 °F 100% 30.17 in 2.0 mi SSW 3.5 mph - N/A   Overcast
8:16 AM 33.8 °F 30.8 °F 32.0 °F 93% 30.18 in 2.5 mi SSW 3.5 mph - N/A   Overcast
8:36 AM 33.8 °F - 33.8 °F 100% 30.18 in 2.5 mi Calm Calm - N/A   Overcast
8:56 AM 35.6 °F 31.7 °F 33.8 °F 93% 30.18 in 3.0 mi SSW 4.6 mph - N/A   Overcast
9:16 AM 35.6 °F 32.8 °F 33.8 °F 93% 30.18 in 3.0 mi SSW 3.5 mph - N/A   Overcast
9:36 AM 37.4 °F 34.9 °F 33.8 °F 87% 30.18 in 4.0 mi SW 3.5 mph - N/A   Overcast
9:56 AM 37.4 °F 34.9 °F 33.8 °F 87% 30.18 in 4.0 mi SW 3.5 mph - N/A   Overcast
10:16 AM 39.2 °F 37.0 °F 35.6 °F 87% 30.18 in 5.0 mi SSW 3.5 mph - N/A   Overcast
10:36 AM 41.0 °F 39.0 °F 35.6 °F 81% 30.18 in 5.0 mi WSW 3.5 mph - N/A   Haze
10:56 AM 42.8 °F 40.1 °F 35.6 °F 76% 30.18 in 7.0 mi SSW 4.6 mph - N/A   Overcast
11:16 AM 44.6 °F 41.4 °F 35.6 °F 71% 30.17 in 5.0 mi SSW 5.8 mph - N/A   Haze
11:36 AM 44.6 °F 42.2 °F 35.6 °F 71% 30.17 in 7.0 mi SSW 4.6 mph - N/A   Overcast
11:56 AM 44.6 °F 42.2 °F 37.4 °F 76% 30.16 in 7.0 mi South 4.6 mph - N/A   Overcast
12:16 PM 46.4 °F 43.5 °F 37.4 °F 71% 30.16 in 5.0 mi SSW 5.8 mph - N/A   Haze
12:36 PM 46.4 °F 42.4 °F 37.4 °F 71% 30.16 in 7.0 mi SSW 8.1 mph - N/A   Overcast
12:56 PM 46.4 °F 42.9 °F 37.4 °F 71% 30.15 in 7.0 mi SSW 6.9 mph - N/A   Overcast
1:16 PM 46.4 °F 45.2 °F 35.6 °F 66% 30.15 in 7.0 mi SSW 3.5 mph - N/A   Overcast
1:36 PM 46.4 °F 42.4 °F 37.4 °F 71% 30.15 in 5.0 mi South 8.1 mph - N/A   Haze
1:56 PM 46.4 °F 42.4 °F 37.4 °F 71% 30.14 in 5.0 mi South 8.1 mph - N/A   Haze
2:16 PM 46.4 °F 42.4 °F 37.4 °F 71% 30.13 in 5.0 mi South 8.1 mph - N/A   Haze
2:36 PM 46.4 °F 42.4 °F 37.4 °F 71% 30.12 in 5.0 mi South 8.1 mph - N/A   Haze
2:56 PM 46.4 °F 41.9 °F 37.4 °F 71% 30.12 in 5.0 mi SSW 9.2 mph - N/A   Haze
3:16 PM 46.4 °F 42.4 °F 35.6 °F 66% 30.12 in 7.0 mi SSW 8.1 mph - N/A   Overcast
3:36 PM 48.2 °F - 35.6 °F 62% 30.13 in 7.0 mi SSE 3.5 mph - N/A   Mostly Cloudy
3:56 PM 48.2 °F - 35.6 °F 62% 30.13 in 7.0 mi SSW 4.6 mph - N/A   Mostly Cloudy
4:16 PM 46.4 °F 43.5 °F 35.6 °F 66% 30.13 in 7.0 mi SSW 5.8 mph - N/A   Scattered Clouds
4:36 PM 46.4 °F 44.3 °F 35.6 °F 66% 30.13 in 7.0 mi SSE 4.6 mph - N/A   Clear
4:56 PM 44.6 °F - 35.6 °F 71% 30.13 in 7.0 mi Calm Calm - N/A   Clear
5:16 PM 42.8 °F 41.1 °F 35.6 °F 76% 30.13 in 7.0 mi SE 3.5 mph - N/A   Clear
5:36 PM 41.0 °F - 35.6 °F 81% 30.14 in 7.0 mi Calm Calm - N/A   Mostly Cloudy
5:56 PM 42.8 °F 40.1 °F 37.4 °F 81% 30.13 in 7.0 mi ESE 4.6 mph - N/A   Overcast
6:16 PM 44.6 °F 42.2 °F 37.4 °F 76% 30.14 in 7.0 mi ESE 4.6 mph - N/A   Overcast
6:36 PM 44.6 °F 41.4 °F 37.4 °F 76% 30.14 in 7.0 mi ESE 5.8 mph - N/A   Overcast
6:56 PM 44.6 °F 42.2 °F 37.4 °F 76% 30.14 in 7.0 mi SE 4.6 mph - N/A   Overcast
7:16 PM 44.6 °F 42.2 °F 37.4 °F 76% 30.14 in 7.0 mi ESE 4.6 mph - N/A   Overcast
7:36 PM 44.6 °F 42.2 °F 37.4 °F 76% 30.14 in 7.0 mi ESE 4.6 mph - N/A   Overcast
7:56 PM 44.6 °F 42.2 °F 37.4 °F 76% 30.14 in 7.0 mi East 4.6 mph - N/A   Overcast
8:16 PM 44.6 °F 42.2 °F 37.4 °F 76% 30.14 in 7.0 mi ESE 4.6 mph - N/A   Overcast
8:36 PM 44.6 °F 43.1 °F 37.4 °F 76% 30.14 in 7.0 mi ESE 3.5 mph - N/A   Overcast
8:56 PM 44.6 °F - 37.4 °F 76% 30.14 in 7.0 mi Calm Calm - N/A   Overcast
9:16 PM 44.6 °F - 39.2 °F 81% 30.14 in 7.0 mi Calm Calm - N/A   Overcast
9:36 PM 44.6 °F - 39.2 °F 81% 30.14 in 7.0 mi Calm Calm - N/A   Overcast
9:56 PM 44.6 °F 42.2 °F 39.2 °F 81% 30.14 in 7.0 mi South 4.6 mph - N/A Rain Light Rain
10:16 PM 44.6 °F - 39.2 °F 81% 30.15 in 7.0 mi Calm Calm - N/A   Overcast
10:36 PM 44.6 °F - 39.2 °F 81% 30.15 in 7.0 mi Calm Calm - N/A   Overcast
10:56 PM 44.6 °F - 39.2 °F 81% 30.15 in 5.0 mi Calm Calm - N/A   Haze
11:16 PM 44.6 °F - 39.2 °F 81% 30.15 in 5.0 mi Calm Calm - N/A   Haze
11:36 PM 44.6 °F - 39.2 °F 81% 30.14 in 7.0 mi Calm Calm - N/A   Overcast
11:56 PM 44.6 °F 43.1 °F 39.2 °F 81% 30.14 in 5.0 mi East 3.5 mph - N/A   Overcast